FENGYUN 1C DEB, 32175

Orbit data source: Space-Track

FENGYUN 1C DEB, 32175 is space debris in SSO originally from a launch on Mon, 10 May 1999 UTC launched from the Taiyaun Space Center, China (TSC). Fengyun 1C debris stems from the Chinese weather satellite Fengyun-1C, which was intentionally destroyed by a Chinese anti-satellite missile in 2007. This event dramatically increased the amount of space debris, with thousands of trackable fragments posing hazards to satellites and human spaceflight. The Fengyun 1C debris cloud has become a focal point in discussions about space sustainability and the need for international regulations to prevent the creation of new debris.

Loading next visibility...
Identifier
32175, 1999-025CTV
Orbit
SSO
Country
Flag of CNCN / PRC
Related business
Manufacturer
Unknown
Mission
Spacecraft
Bus & Motor
Unknown
Mass
Unknown
Launch date (UTC)
1999-05-10 (27 years ago)
Launch vehicle
Unknown
Launch site
Taiyaun Space Center, China (TSC)
Object type
Payload
Rocket body
Debris
Shape & HBR
Unknown shape, 0.1 m
Radar Cross Section
Small (<0.1 m²)

Expand to show TLE details & history
Last TLE update: 12 hours ago

TLE from 12 hours ago
0 FENGYUN 1C DEB
1 32175U 99025CTV 25352.25655450  .00003654  00000-0  25011-2 0  9991
2 32175  98.8229 340.5810 0151945 308.0289  50.7239 13.94848642599170
Epoch: 2025-12-18T06:09Z
TLE epoch observation values (Epoch: 2025-12-18T06:09:26.308Z)
Latitude
-0.00004°
Longitude
161.10672°
Altitude
845.455 km
Speed
7.465 km/s
True Right ascension
22h 42m 19s
True Declination
0° 00' 00"
Sunlit
Object was in daylight at epoch
Visualization orbit readout
Latitude
Unknown
Longitude
Unknown
Altitude
Unknown
Speed
Unknown
Apparent Right ascension
Unknown
Apparent Declination
Unknown
Sunlit
N/A
Visualization observer readout
Local Sidereal Time
17:12:27
Azimuth
Unknown
Elevation
Unknown
Doppler factor
Unknown
Orbital elements
Apogee altitude
1,019.608 km
Perigee altitude
798.162 km
Semi-major axis
7,287.022 km
Eccentricity
0.01519
Inclination
98.8229°
RAAN
340.581°
Arg. of periapsis
308.0289°
True anomaly
52.08801°
Mean anomaly
50.7239°
Eccentric anomaly
51.40432°
Mean motion
3.48914 °/min
Orbital period
103.18 mins
BSTAR
0.0025011
Loading maneuver chart data...
Computing Atmospheric mass density...

Documentation

Showing up to 5 results
|